Skip Page Navigation
NASA JPL Caltech
NASA Logo - Jet Propulsion Laboratory + View the NASA Portal
+ Center for Near-Earth Object Studies
JPL Home Earth Solar System Stars & Galaxies Technology
JPL Solar System Dynamics
BODIES ORBITS EPHEMERIDES TOOLS PHYSICAL DATA DISCOVERY FAQ SITE MAP
IMPORTANT: The SSD Announcement email list is now available. Major changes are coming in the near future, including possible hostname and/or URL changes. To be notified of such changes, subscribe to this email list.

Please visit this page for more details.


JPL Small-Body Database Browser
Search: [ help ]  
214825 (2006 VS41)
Classification: Main-belt Asteroid          SPK-ID: 2214825
Ephemeris | Orbit Diagram | Orbital Elements | Mission Design | Physical Parameters | Discovery Circumstances | Close-Approach Data ]

[ show orbit diagram ]
Orbital Elements at Epoch 2458600.5 (2019-Apr-27.0) TDB
Reference: JPL 15 (heliocentric ecliptic J2000)
 Element Value Uncertainty (1-sigma)   Units 
e .08772496644528639 5.6812e-08  
a 3.186063680194898 4.3918e-08 au
q 2.906566350757255 1.7852e-07 au
i 5.509612126614528 7.3059e-06 deg
node 67.15168852120736 6.8935e-05 deg
peri 210.9000296419376 8.128e-05 deg
M 198.1483080309666 4.3428e-05 deg
tp 2459534.388113318749
(2021-Nov-15.88811332)
0.00025263 TDB
period 2077.208564857474
5.69
4.2949e-05
1.176e-07
d
yr
n .1733095107013008 3.5834e-09 deg/d
Q 3.465561009632542 4.777e-08 au
  Orbit Determination Parameters
   # obs. used (total)      254  
   data-arc span      6652 days (18.21 yr)  
   first obs. used      2000-09-29  
   last obs. used      2018-12-16  
   planetary ephem.      DE431  
   SB-pert. ephem.      SB431-N16  
   condition code      0  
   norm. resid. RMS      .61882  
   source      ORB  
   producer      Otto Matic  
   solution date      2019-Jul-14 08:31:42  

Additional Information
 Earth MOID = 1.89145 au 
 Jupiter MOID = 1.63132 au 
 T_jup = 3.185 
[ show covariance matrix ]

Ephemeris | Orbit Diagram | Orbital Elements | Mission Design | Physical Parameters | Discovery Circumstances | Close-Approach Data ]

Physical Parameter Table
Parameter Symbol Value Units Sigma Reference Notes
absolute magnitude H 15.3   n/a MPO427263  
diameter diameter 3.761 km 0.896 urn:nasa:pds:neowise_diameters_albedos::2.0[mainbelt] (http://adsabs.harvard.edu/abs/2011ApJ...741...68M)  
geometric albedo albedo 0.095   0.059 urn:nasa:pds:neowise_diameters_albedos::2.0[mainbelt] (http://adsabs.harvard.edu/abs/2011ApJ...741...68M)  

214825 (2006 VS41)          Discovered 2006-Nov-12 by Mt. Lemmon Survey at Mount Lemmon
Reference: 20090509/Numbers.arcLast Updated: 2009-05-11

[ show close-approach data ]
Alternate Designations
 2006 VS41 = 2003 FL41 
Ephemeris | Orbit Diagram | Orbital Elements | Mission Design | Physical Parameters | Discovery Circumstances | Close-Approach Data ]
ABOUT SSD CREDITS/AWARDS PRIVACY/COPYRIGHT GLOSSARY LINKS
FirstGov 2019-Dec-08 16:02 UT
(server date/time)  
NASA Home Page
Site Manager:   Ryan S. Park
Webmaster  Alan B. Chamberlin